Cairo, IL

2:29 PM CST on February 26, 2017 (GMT -0600)
Cairo Regional

Weather History for KCIR - January, 2014

Change the Weather History Date:

Friday, January 31, 2014

  Actual Average Record
Temperature  
Mean Temperature 34 °F -  
Max Temperature 45 °F 42 °F 66 °F (1967)
Min Temperature 23 °F 26 °F 3 °F (1965)
Degree Days  
Heating Degree Days 31    
Moisture  
Dew Point 24 °F    
Average Humidity 65    
Maximum Humidity 91    
Minimum Humidity 33    
Precipitation  
Precipitation 0.03 in - - ()
Sea Level Pressure  
Sea Level Pressure 30.04 in    
Wind  
Wind Speed 3 mph (ESE)    
Max Wind Speed 10 mph    
Max Gust Speed -    
Visibility 7 miles    
Events      
Averages and records for this station are not official NWS values.
T = Trace of Precipitation, MM = Missing Value Source: NWS Daily Summary

Daily Weather History Graph

Daily Weather History Graph

Search for Another Location

Airport or City:

Trip Planner

Search our weather history database for the weather conditions in past years. The results will help you decide how hot, cold, wet, or windy it might be!

Date:

Astronomy

Jan. 31, 2014 Rise Set
Actual Time 7:00 AM CST 5:20 PM CST
Civil Twilight 6:32 AM CST 5:48 PM CST
Nautical Twilight 6:01 AM CST 6:19 PM CST
Astronomical Twilight 5:31 AM CST 6:50 PM CST
Moon 7:12 AM CST (1/31) 6:41 PM CST (1/31)
Length of Visible Light 11h 15m
Length of Day
10h 20m
New Moon, 1% of the Moon is Illuminated
Jan 31
New Moon
Feb 6
First Quarter
Feb 14
Full
Feb 22
Last Quarter
Mar 1
New

Hourly Weather History & Observations

Time (CST) Temp. Windchill Dew Point Humidity Pressure Visibility Wind Dir Wind Speed Gust Speed Precip Events Conditions
12:15 AM 31.3 °F - 10.0 °F 41% 30.04 in 10.0 mi Calm Calm - N/A   Clear
12:35 AM 32.7 °F 29.6 °F 9.5 °F 38% 30.02 in 10.0 mi SSE 3.5 mph - N/A   Clear
12:55 AM 30.7 °F 27.3 °F 9.9 °F 42% 30.03 in 10.0 mi South 3.5 mph - N/A   Clear
1:15 AM 34.0 °F 28.8 °F 9.9 °F 37% 30.03 in 10.0 mi South 5.8 mph - N/A   Clear
1:35 AM 34.2 °F 30.0 °F 8.6 °F 34% 30.03 in 10.0 mi South 4.6 mph - N/A   Clear
1:55 AM 33.8 °F 30.8 °F 8.6 °F 35% 30.04 in 10.0 mi South 3.5 mph - N/A   Clear
2:15 AM 33.8 °F 30.8 °F 8.6 °F 35% 30.03 in 10.0 mi South 3.5 mph - N/A   Clear
2:35 AM 33.1 °F - 9.1 °F 37% 30.06 in 10.0 mi Calm Calm - N/A   Clear
2:55 AM 33.3 °F 30.2 °F 9.9 °F 38% 30.05 in 10.0 mi South 3.5 mph - N/A   Clear
3:15 AM 31.1 °F - 8.2 °F 38% 30.05 in 10.0 mi Calm Calm - N/A   Clear
3:35 AM 30.9 °F - 9.0 °F 40% 30.06 in 10.0 mi Calm Calm - N/A   Clear
3:55 AM 28.8 °F - 9.9 °F 45% 30.06 in 10.0 mi Calm Calm - N/A   Clear
4:15 AM 24.6 °F - 9.9 °F 54% 30.05 in 10.0 mi Calm Calm - N/A   Clear
4:35 AM 23.9 °F - 12.2 °F 61% 30.05 in 10.0 mi Calm Calm - N/A   Clear
4:55 AM 24.8 °F - 13.6 °F 63% 30.05 in 10.0 mi Calm Calm - N/A   Clear
5:15 AM 24.3 °F - 14.0 °F 65% 30.06 in 10.0 mi Calm Calm - N/A   Clear
5:35 AM 25.7 °F - 14.7 °F 63% 30.06 in 10.0 mi Calm Calm - N/A   Clear
5:55 AM 25.7 °F - 13.8 °F 61% 30.06 in 10.0 mi Calm Calm - N/A   Clear
6:15 AM 24.6 °F - 13.5 °F 63% 30.07 in 10.0 mi Calm Calm - N/A   Clear
6:35 AM 24.3 °F - 14.2 °F 65% 30.08 in 10.0 mi Calm Calm - N/A   Clear
6:55 AM 24.8 °F - 14.7 °F 66% 30.07 in 10.0 mi Calm Calm - N/A   Clear
7:15 AM 24.6 °F - 13.3 °F 62% 30.08 in 10.0 mi Calm Calm - N/A   Scattered Clouds
7:35 AM 24.8 °F - 16.2 °F 70% 30.09 in 10.0 mi Calm Calm - N/A   Mostly Cloudy
7:55 AM 28.4 °F - 18.9 °F 67% 30.09 in 10.0 mi Calm Calm - N/A   Overcast
8:15 AM 30.4 °F - 19.9 °F 65% 30.09 in 10.0 mi Calm Calm - N/A   Overcast
8:35 AM 32.9 °F 28.5 °F 22.5 °F 65% 30.09 in 10.0 mi NE 4.6 mph - N/A   Overcast
8:55 AM 35.2 °F - 22.1 °F 59% 30.10 in 10.0 mi Calm Calm - N/A   Overcast
9:15 AM 38.1 °F 35.7 °F 21.7 °F 52% 30.09 in 10.0 mi East 3.5 mph - N/A   Overcast
9:35 AM 39.4 °F - 20.1 °F 46% 30.10 in 10.0 mi Calm Calm - N/A   Overcast
9:55 AM 40.6 °F - 19.9 °F 44% 30.11 in 10.0 mi Calm Calm - N/A   Overcast
10:15 AM 40.6 °F - 19.4 °F 43% 30.11 in 10.0 mi Calm Calm - N/A   Overcast
10:35 AM 41.9 °F 40.0 °F 19.2 °F 40% 30.11 in 10.0 mi ESE 3.5 mph - N/A   Overcast
10:55 AM 43.3 °F 41.7 °F 19.0 °F 38% 30.10 in 10.0 mi East 3.5 mph - N/A   Overcast
11:15 AM 44.1 °F 40.8 °F 19.4 °F 37% 30.09 in 10.0 mi ESE 5.8 mph - N/A   Overcast
11:35 AM 45.5 °F 42.5 °F 18.3 °F 34% 30.08 in 10.0 mi SSE 5.8 mph - N/A   Overcast
11:55 AM 45.9 °F 41.7 °F 18.3 °F 33% 30.07 in 10.0 mi SSE 8.1 mph - N/A   Overcast
12:15 PM 45.9 °F 40.8 °F 19.2 °F 35% 30.07 in 10.0 mi SSE 10.4 mph - N/A   Overcast
12:35 PM 45.9 °F 40.8 °F 20.8 °F 37% 30.05 in 10.0 mi SSE 10.4 mph - N/A   Overcast
12:55 PM 45.9 °F 41.7 °F 22.6 °F 40% 30.05 in 10.0 mi SSE 8.1 mph - N/A   Overcast
1:15 PM 45.0 °F 39.7 °F 24.8 °F 45% 30.04 in 10.0 mi SSE 10.4 mph - N/A   Overcast
1:35 PM 43.2 °F 38.4 °F 28.6 °F 56% 30.04 in 10.0 mi South 8.1 mph - N/A   Overcast
1:55 PM 41.5 °F 36.4 °F 30.4 °F 65% 30.03 in 7.0 mi SSE 8.1 mph - N/A   Overcast
2:15 PM 39.6 °F 37.4 °F 32.0 °F 74% 30.03 in 4.0 mi South 3.5 mph - N/A   Haze
2:35 PM 39.2 °F - 32.9 °F 78% 30.04 in 4.0 mi Calm Calm - N/A   Haze
2:55 PM 39.0 °F - 33.3 °F 80% 30.04 in 2.0 mi Calm Calm - N/A   Haze
3:15 PM 39.2 °F - 34.0 °F 82% 30.04 in 1.2 mi Calm Calm - N/A   Unknown
3:35 PM 38.8 °F 36.5 °F 34.2 °F 83% 30.04 in 1.2 mi East 3.5 mph - 0.01 in   Unknown
3:55 PM 38.5 °F 35.0 °F 34.3 °F 85% 30.04 in 1.5 mi East 4.6 mph - 0.01 in   Haze
4:15 PM 38.5 °F 35.0 °F 34.7 °F 86% 30.03 in 1.2 mi East 4.6 mph - 0.01 in   Overcast
4:35 PM 38.5 °F 35.0 °F 34.7 °F 86% 30.03 in 1.5 mi East 4.6 mph - 0.01 in   Overcast
4:55 PM 38.3 °F 33.9 °F 34.7 °F 87% 30.03 in 1.5 mi East 5.8 mph - 0.01 in   Overcast
5:15 PM 38.3 °F 34.8 °F 34.7 °F 87% 30.03 in 2.5 mi East 4.6 mph - N/A   Overcast
5:35 PM 38.3 °F 33.9 °F 34.9 °F 87% 30.04 in 2.5 mi East 5.8 mph - N/A   Overcast
5:55 PM 38.3 °F 34.8 °F 35.1 °F 88% 30.03 in 2.5 mi East 4.6 mph - N/A   Overcast
6:15 PM 38.3 °F 33.9 °F 35.2 °F 89% 30.03 in 2.5 mi East 5.8 mph - N/A   Overcast
6:35 PM 38.5 °F 35.0 °F 35.6 °F 89% 30.03 in 2.5 mi East 4.6 mph - 0.01 in   Overcast
6:55 PM 38.5 °F 34.1 °F 35.6 °F 89% 30.01 in 2.5 mi ESE 5.8 mph - 0.01 in   Overcast
7:15 PM 38.8 °F 35.4 °F 36.0 °F 89% 30.01 in 3.0 mi East 4.6 mph - N/A   Overcast
7:35 PM 39.2 °F 37.0 °F 36.1 °F 89% 30.01 in 4.0 mi NE 3.5 mph - N/A   Overcast
7:55 PM 39.0 °F 35.7 °F 36.3 °F 90% 30.01 in 4.0 mi NE 4.6 mph - N/A   Overcast
8:15 PM 38.8 °F 35.4 °F 36.1 °F 90% 30.01 in 3.0 mi NE 4.6 mph - N/A   Overcast
8:35 PM 38.8 °F 35.4 °F 36.1 °F 90% 30.00 in 3.0 mi NE 4.6 mph - N/A   Overcast
8:55 PM 38.8 °F 36.5 °F 36.3 °F 91% 30.01 in 3.0 mi NE 3.5 mph - N/A   Overcast
9:15 PM 38.8 °F 36.5 °F 36.5 °F 91% 29.99 in 3.0 mi ENE 3.5 mph - N/A   Overcast
9:35 PM 39.4 °F 36.1 °F 36.9 °F 91% 30.00 in 4.0 mi NE 4.6 mph - N/A   Overcast
9:55 PM 39.4 °F 34.5 °F 36.9 °F 91% 29.98 in 4.0 mi East 6.9 mph - N/A   Overcast
10:15 PM 39.6 °F 35.4 °F 37.0 °F 91% 29.97 in 4.0 mi East 5.8 mph - N/A   Overcast
10:35 PM 39.7 °F 35.6 °F 37.4 °F 91% 29.98 in 4.0 mi ENE 5.8 mph - N/A   Overcast
10:55 PM 39.6 °F 36.3 °F 37.2 °F 91% 29.98 in 4.0 mi ENE 4.6 mph - N/A   Overcast
11:15 PM 39.6 °F 37.4 °F 37.0 °F 91% 29.98 in 3.0 mi NE 3.5 mph - N/A   Overcast
11:35 PM 39.6 °F 36.3 °F 37.0 °F 91% 29.97 in 3.0 mi ENE 4.6 mph - N/A   Overcast
11:55 PM 39.7 °F 36.5 °F 37.4 °F 91% 29.97 in 3.0 mi ENE 4.6 mph - N/A   Overcast